Regional Weather Roundup
Issued by NWS

Home | Current Version | Previous Version | Graphics & Text | Print | Product List | Glossary On
Versions: 1 2 3 4 5 6 7 8 9 10 11 12 13 14 15 16 17 18 19 20 21 22 23 24 25 26 27 28 29 30 31 32 33 34 35 36 37 38 39 40 41 42 43 44 45 46 47 48 49 50
567
ASUS45 KBOU 241810
RWRCO

WEATHER ROUNDUP FOR COLORADO
NATIONAL WEATHER SERVICE DENVER/BOULDER CO
1100 AM MST FRI NOV 24 2017

NOTE: "FAIR" INDICATES FEW OR NO CLOUDS BELOW 12000 FEET WITH NO
SIGNIFICANT WEATHER AND/OR OBSTRUCTIONS TO VISIBILITY.

COZ001>005-013-030-031-241900-
...NORTHWEST COLORADO...

CITY           SKY/WX    TMP DP  RH WIND       PRES   REMARKS
CRAIG          FAIR      49  36  61 SE5       30.03R
HAYDEN         FAIR      47  35  63 CALM      30.05R
MEEKER         FAIR      57  33  40 W7        30.04R
RABBIT EARS PA CLOUDY    37  28  70 W10G20    30.14R
STEAMBOAT SPGS PTSUNNY   39  34  84 CALM      30.04R
WALDEN         FAIR      50  27  40 W18G28    30.05S
$$

COZ006>008-011-241900-
...WEST CENTRAL VALLEYS...

CITY           SKY/WX    TMP DP  RH WIND       PRES   REMARKS
GRAND JUNCTION FAIR      51  35  54 W5        30.06S
MONTROSE       FAIR      53  29  39 CALM      30.08F
EAGLE          PTSUNNY   40  31  70 CALM      30.08F
RIFLE          CLOUDY    42  35  76 CALM      30.07F
DELTA          FAIR      53  32  45 CALM      30.06F
NUCLA          FAIR      50  23  34 N3        30.14F
$$

COZ017>023-064>068-241900-
...SOUTHWEST COLORADO...

CITY           SKY/WX    TMP DP  RH WIND       PRES   REMARKS
DURANGO        FAIR      50  29  44 E7        30.15F
CORTEZ         FAIR      56  28  34 CALM      30.13F
PAGOSA SPRINGS FAIR      51  23  33 CALM      30.17F THUNDER
TELLURIDE      PTSUNNY   55  16  21 CALM      30.23F
WOLF CREEK PAS FAIR      37  19  48 SW10G20   30.37S
$$

COZ009-010-012-014-032>034-037-058>063-241900-
...CENTRAL COLORADO...

CITY           SKY/WX    TMP DP  RH WIND       PRES   REMARKS
ASPEN          CLOUDY    46  27  47 CALM      30.08F
BUENA VISTA    FAIR      57  17  20 W23G35    30.07F
COPPER MTN     CLOUDY    37  23  56 W15G22    30.24S
BERTHOUD PASS  CLOUDY    32  21  64 W43G56    30.18S WCI  15
COTTONWOOD PAS FAIR      54  18  24 NW6G20    30.16S
GUNNISON       FAIR      39  26  59 CALM      30.16F
KREMMLING      FAIR      57  28  33 W14G22    30.04S
LEADVILLE      PTSUNNY   45  17  32 NW9       30.14F
MONARCH PASS   CLOUDY    36  18  48 SW20G26   30.38F
SALIDA         FAIR      64  16  16 W20G28    30.13F
SUNLIGHT       CLOUDY    36  23  60 SW10G25   30.23S
WILKERSON PASS FAIR      43  18  36 W14G22    30.22R
$$

COZ069>075-241900-
...SAN LUIS VALLEY/SANGRE DE CRISTO MOUNTAINS...

CITY           SKY/WX    TMP DP  RH WIND       PRES   REMARKS
ALAMOSA        FAIR      50  26  39 CALM      30.11F
DEL NORTE      FAIR      47  21  35 E7        30.12F
LA VETA PASS   FAIR      46  16  29 MISG        N/A
SAGUACHE       FAIR      46  27  46 SE6       30.12F
$$

COZ035-036-038>040-241900-
...NORTHERN COLORADO FRONT RANGE...

CITY           SKY/WX    TMP DP  RH WIND       PRES   REMARKS
DENVER INTL AP PTSUNNY   71  23  16 NW14      29.86S
DMNS CITY PARK   N/A     66  24  20 E9G21     29.85S
AURORA         PTSUNNY   68  27  21 E7        29.88R
FRONT RANGE AP PTSUNNY   72  27  18 NW5       29.89S
ERIE MUNI ARPT FAIR      70  21  15 N12G18    29.89S
BOULDER MUN AP FAIR      68  25  19 W12G29    29.85R
CENTENNIAL     PTSUNNY   67  25  20 CALM      29.88S
BROOMFIELD     PTSUNNY   68  21  17 W8        29.87R
FORT COLLINS   FAIR      54  34  46 E7        29.87R
LONGMONT       FAIR      69  26  20 W8        29.88R
$$

COZ041-046-047-076>085-087-088-241900-
...PIKES PEAK/PALMER DIVIDE AND SOUTHERN FOOTHILLS...

CITY           SKY/WX    TMP DP  RH WIND       PRES   REMARKS
COLO. SPRINGS  PTSUNNY   67  20  16 SW9G21    29.90F
A. F. ACADEMY  FAIR      65  21  18 N9        29.91F
SCHRIEVER AFB  FAIR      67  19  15 NW12      29.92F
CHEYENNE MTN   FAIR      61  13  15 S6        29.89F
ELLICOTT         N/A    N/A N/A N/A NW12      29.91F
FALCON         FAIR      65  19  16 W18G26    29.95F
FORT CARSON    FAIR      65  18  16 CALM      29.89S
LIMON          FAIR      68  22  17 NW9       29.86F
MONUMENT HILL  FAIR      61  25  25 NW22G29   29.97R
CANON CITY     FAIR      77  27  15 W16G24    29.85F
WALSENBURG     FAIR      66  18  15 W15G21    29.93F
TRINIDAD       FAIR      68  20  16 W13       29.92F
$$

COZ042>045-048>051-090-091-241900-
...NORTHEAST COLORADO...

CITY           SKY/WX    TMP DP  RH WIND       PRES   REMARKS
GREELEY ARPT   NOT AVBL
AKRON          FAIR      65  24  21 NW12      29.84F
BURLINGTON     FAIR      70  31  23 N7        29.82R
WRAY           NOT AVBL
YUMA           FAIR      63  18  17 NW5       29.81F
STERLING       FAIR      55  34  44 CALM      29.82S
HOLYOKE        FAIR      73  32  21 NW17G23   29.81S
FORT MORGAN    FAIR      60  24  25 CALM      29.85S
$$

COZ086-089-092>099-241900-
...SOUTHEAST COLORADO...

CITY           SKY/WX    TMP DP  RH WIND       PRES   REMARKS
PUEBLO         FAIR      66  23  19 SW5       29.85F
LA JUNTA       FAIR      70  24  17 W12       29.81F
LAMAR          FAIR      73  23  15 W12       29.77F
SPRINGFIELD      N/A     77  21  12 NW15G23   29.80F
$$




USA.gov is the U.S. government's official web portal to all federal, state and local government web resources and services.